Location: Bohy
(49.9380°N, 13.5753°E)
Time: 16:43:48
(UTC+00:00)

BlueWalker 3 - Pass Details

Date: 19 May 2025
Orbit: 460 x 472 km, 53.2° (Epoch: 17 June)

Event Time Altitude Azimuth Distance (km) Brightness Sun altitude
Rises 19:27:18 0° 290° (WNW) 2,492 7.1 -5.5°
Reaches altitude 10° 19:29:28 10° 293° (WNW) 1,617 6.0 -5.8°
Maximum altitude 19:33:05 70° 17° (NNE) 497 2.0 -6.3°
Drops below altitude 10° 19:36:44 10° 103° (ESE) 1,620 4.0 -6.7°
Enters shadow 19:37:31 - 104° (ESE) 1,935 4.4 -6.8°
